When you browse on this site, cookies collect data to enhance your experience and personalize the content and advertising you see.
Visit our Privacy Policy to learn more. By continuing to use the site, you agree to this use of cookies and data.
  • In Portugal
  • List of Countries
  • For 7 days
  • Water Temperature
  • Weather Map
  • Weather Widgets
  • user-avatar
    Login

    Hourly Weather Medina del Campo

    Today, 14 December, Saturday

    Time Temperature Precipitation Wind Pressure Humidity
    00:00 +6°C° 0 mm 7 mps 699 mmHg 89%
    01:00 +6°C° 0 mm 7 mps 699 mmHg 86%
    02:00 +6°C° 0 mm 7 mps 699 mmHg 83%
    03:00 +8°C° 0 mm 7 mps 699 mmHg 80%
    04:00 +8°C° 0 mm 7 mps 699 mmHg 80%
    05:00 +8°C° 0 mm 6 mps 699 mmHg 80%
    06:00 +7°C° 0 mm 6 mps 699 mmHg 79%
    07:00 +8°C° 0 mm 6 mps 699 mmHg 79%
    08:00 +8°C° 0 mm 6 mps 700 mmHg 78%
    09:00 +8°C° 0 mm 6 mps 700 mmHg 77%
    10:00 +8°C° 0 mm 6 mps 700 mmHg 74%
    11:00 +9°C° 0 mm 6 mps 700 mmHg 71%
    12:00 +10°C° 0 mm 7 mps 699 mmHg 68%
    13:00 +9°C° 0 mm 7 mps 699 mmHg 69%
    14:00 +9°C° 0 mm 7 mps 698 mmHg 69%
    15:00 +9°C° 0 mm 7 mps 698 mmHg 70%
    16:00 +9°C° 0 mm 6 mps 698 mmHg 72%
    17:00 +9°C° 0 mm 6 mps 698 mmHg 73%
    18:00 +8°C° 0 mm 5 mps 698 mmHg 74%
    19:00 +8°C° 0 mm 6 mps 698 mmHg 75%
    20:00 +8°C° 0 mm 6 mps 698 mmHg 75%
    21:00 +8°C° 0 mm 6 mps 698 mmHg 76%
    22:00 +8°C° 0 mm 6 mps 698 mmHg 77%
    23:00 +8°C° 0 mm 6 mps 698 mmHg 79%

    Tomorrow, 15 December, Sunday

    Time Temperature Precipitation Wind Pressure Humidity
    00:00 +8°C° 0 mm 7 mps 698 mmHg 80%
    01:00 +6°C° 0 mm 7 mps 697 mmHg 81%
    02:00 +6°C° 0 mm 7 mps 697 mmHg 81%
    03:00 +6°C° 0 mm 7 mps 696 mmHg 81%
    04:00 +5°C° 0 mm 7 mps 696 mmHg 82%
    05:00 +5°C° 0 mm 6 mps 695 mmHg 82%
    06:00 +5°C° 0 mm 6 mps 695 mmHg 82%
    07:00 +6°C° 0 mm 7 mps 695 mmHg 79%
    08:00 +6°C° 0 mm 7 mps 695 mmHg 76%
    09:00 +6°C° 0 mm 8 mps 695 mmHg 74%
    10:00 +7°C° 0 mm 8 mps 695 mmHg 69%
    11:00 +10°C° 0 mm 9 mps 695 mmHg 64%
    12:00 +11°C° 0 mm 10 mps 695 mmHg 59%
    13:00 +11°C° 0 mm 9 mps 694 mmHg 59%
    14:00 +10°C° 0 mm 9 mps 694 mmHg 59%
    15:00 +10°C° 0 mm 8 mps 693 mmHg 59%
    16:00 +9°C° 0 mm 8 mps 693 mmHg 62%
    17:00 +9°C° 0 mm 7 mps 692 mmHg 65%
    18:00 +8°C° 0 mm 6 mps 692 mmHg 68%
    19:00 +8°C° 0 mm 6 mps 692 mmHg 70%
    20:00 +8°C° 0 mm 6 mps 692 mmHg 73%
    21:00 +8°C° 0 mm 6 mps 691 mmHg 75%
    22:00 +8°C° 0 mm 6 mps 691 mmHg 75%
    23:00 +8°C° 0 mm 6 mps 690 mmHg 75%

    Day after tomorrow, 16 December, Monday

    Time Temperature Precipitation Wind Pressure Humidity
    00:00 +8°C° 0 mm 6 mps 689 mmHg 75%
    01:00 +8°C° 0.2 mm 6 mps 689 mmHg 76%
    02:00 +8°C° 0.2 mm 6 mps 688 mmHg 77%
    03:00 +8°C° 0.2 mm 5 mps 687 mmHg 79%
    04:00 +8°C° 0.4 mm 6 mps 686 mmHg 78%
    05:00 +8°C° 0.4 mm 7 mps 686 mmHg 78%
    06:00 +8°C° 0.4 mm 7 mps 685 mmHg 77%
    07:00 +6°C° 0.8 mm 7 mps 684 mmHg 80%
    08:00 +6°C° 0.8 mm 8 mps 684 mmHg 83%
    09:00 +6°C° 0.8 mm 8 mps 684 mmHg 85%
    10:00 +6°C° 1.3 mm 7 mps 684 mmHg 85%
    11:00 +5°C° 1.3 mm 6 mps 683 mmHg 84%
    12:00 +6°C° 1.3 mm 5 mps 683 mmHg 84%
    13:00 +6°C° 0.1 mm 5 mps 683 mmHg 81%
    14:00 +7°C° 0.1 mm 4 mps 683 mmHg 79%
    15:00 +7°C° 0.1 mm 4 mps 683 mmHg 77%
    16:00 +8°C° 0.2 mm 3 mps 683 mmHg 80%
    17:00 +7°C° 0.2 mm 2 mps 683 mmHg 83%
    18:00 +7°C° 0.2 mm 2 mps 683 mmHg 86%
    19:00 +7°C° 0.6 mm 2 mps 683 mmHg 87%
    20:00 +6°C° 0.6 mm 2 mps 684 mmHg 87%
    21:00 +5°C° 0.6 mm 3 mps 684 mmHg 87%
    22:00 +5°C° 0.3 mm 3 mps 684 mmHg 86%
    23:00 +4°C° 0.3 mm 3 mps 684 mmHg 85%

    17 December, Tuesday

    Time Temperature Precipitation Wind Pressure Humidity
    00:00 +4°C° 0.3 mm 3 mps 684 mmHg 84%
    01:00 +3°C° 0.5 mm 3 mps 685 mmHg 87%
    02:00 +3°C° 0.5 mm 3 mps 685 mmHg 89%
    03:00 +3°C° 0.5 mm 3 mps 685 mmHg 92%
    04:00 +3°C° 0.7 mm 3 mps 686 mmHg 92%
    05:00 +2°C° 0.7 mm 3 mps 686 mmHg 93%
    06:00 +2°C° 0.7 mm 3 mps 687 mmHg 94%
    07:00 +2°C° 0.3 mm 3 mps 688 mmHg 94%
    08:00 +2°C° 0.3 mm 3 mps 688 mmHg 95%
    09:00 +2°C° 0.3 mm 3 mps 689 mmHg 95%
    10:00 +2°C° 0.1 mm 3 mps 690 mmHg 93%
    11:00 +3°C° 0.1 mm 3 mps 690 mmHg 92%
    12:00 +3°C° 0.1 mm 3 mps 691 mmHg 90%
    13:00 +3°C° 0.2 mm 3 mps 691 mmHg 90%
    14:00 +3°C° 0.2 mm 3 mps 692 mmHg 90%
    15:00 +3°C° 0.2 mm 3 mps 692 mmHg 90%
    16:00 +3°C° 0.1 mm 3 mps 693 mmHg 90%
    17:00 +3°C° 0.1 mm 3 mps 694 mmHg 90%
    18:00 +3°C° 0.1 mm 3 mps 694 mmHg 90%
    19:00 +4°C° 0 mm 2 mps 695 mmHg 90%
    20:00 +4°C° 0 mm 2 mps 695 mmHg 89%
    21:00 +4°C° 0 mm 1 mps 696 mmHg 89%
    22:00 +4°C° 0 mm 1 mps 696 mmHg 89%
    23:00 +3°C° 0 mm 2 mps 696 mmHg 90%

    18 December, Wednesday

    Time Temperature Precipitation Wind Pressure Humidity
    00:00 +3°C° 0 mm 2 mps 697 mmHg 90%
    01:00 +2°C° 0 mm 2 mps 696 mmHg 90%
    02:00 +2°C° 0 mm 2 mps 696 mmHg 90%
    03:00 +1°C° 0 mm 2 mps 696 mmHg 90%
    04:00 +1°C° 0 mm 2 mps 696 mmHg 87%
    05:00 +1°C° 0 mm 2 mps 696 mmHg 84%
    06:00 +1°C° 0 mm 2 mps 696 mmHg 81%
    07:00 0°C° 0 mm 3 mps 696 mmHg 76%
    08:00 +1°C° 0 mm 3 mps 696 mmHg 72%
    09:00 +1°C° 0 mm 4 mps 696 mmHg 67%
    10:00 +3°C° 0.3 mm 4 mps 695 mmHg 67%
    11:00 +3°C° 0.3 mm 5 mps 695 mmHg 66%
    12:00 +4°C° 0.3 mm 6 mps 695 mmHg 66%
    13:00 +5°C° 0 mm 7 mps 694 mmHg 68%
    14:00 +6°C° 0 mm 7 mps 693 mmHg 69%
    15:00 +7°C° 0 mm 8 mps 693 mmHg 71%
    16:00 +7°C° 0.4 mm 8 mps 692 mmHg 75%
    17:00 +6°C° 0.4 mm 8 mps 691 mmHg 78%
    18:00 +5°C° 0.4 mm 7 mps 690 mmHg 81%
    19:00 +6°C° 0.8 mm 8 mps 690 mmHg 81%
    20:00 +6°C° 0.8 mm 9 mps 690 mmHg 81%
    21:00 +6°C° 0.8 mm 9 mps 689 mmHg 81%
    22:00 +6°C° 1.6 mm 9 mps 689 mmHg 83%
    23:00 +5°C° 1.6 mm 9 mps 689 mmHg 86%

    19 December, Thursday

    Time Temperature Precipitation Wind Pressure Humidity
    00:00 +5°C° 1.6 mm 9 mps 689 mmHg 88%
    01:00 +5°C° 0.6 mm 9 mps 689 mmHg 87%
    02:00 +3°C° 0.6 mm 9 mps 690 mmHg 85%
    03:00 +3°C° 0.6 mm 9 mps 690 mmHg 83%
    04:00 +3°C° 0.1 mm 9 mps 690 mmHg 83%
    05:00 +4°C° 0.1 mm 8 mps 691 mmHg 83%
    06:00 +4°C° 0.1 mm 8 mps 691 mmHg 84%
    07:00 +4°C° 0 mm 7 mps 692 mmHg 83%
    08:00 +4°C° 0 mm 7 mps 692 mmHg 83%
    09:00 +4°C° 0 mm 7 mps 692 mmHg 82%
    10:00 +5°C° 0 mm 7 mps 692 mmHg 78%
    11:00 +5°C° 0 mm 8 mps 692 mmHg 73%
    12:00 +6°C° 0 mm 9 mps 692 mmHg 69%
    13:00 +6°C° 0.4 mm 9 mps 690 mmHg 71%
    14:00 +6°C° 0.4 mm 9 mps 688 mmHg 72%
    15:00 +6°C° 0.4 mm 10 mps 686 mmHg 74%
    16:00 +6°C° 0.8 mm 10 mps 685 mmHg 77%
    17:00 +7°C° 0.8 mm 11 mps 684 mmHg 79%
    18:00 +7°C° 0.8 mm 12 mps 683 mmHg 82%
    19:00 +8°C° 1.8 mm 12 mps 682 mmHg 83%
    20:00 +8°C° 1.8 mm 12 mps 681 mmHg 84%
    21:00 +9°C° 1.8 mm 13 mps 680 mmHg 86%
    22:00 +8°C° 3.3 mm 12 mps 680 mmHg 85%
    23:00 +8°C° 3.3 mm 12 mps 680 mmHg 84%
    Show more